EHI
2 2 2 1 0 0 0 0 0 0 0 0 1 1 0 0 0 0 0 5 14 19 18 19 22 21 18 18 17 12 9 8 6 5 5 4 4 3 4 6 6 6 4 4 5 4 3 2 1
2 2 1 0 0 0 0 0 0 0 0 0 1 1 0 0 0 0 1 5 12 16 15 17 22 22 17 16 15 11 8 8 6 4 4 4 3 2 2 4 4 4 4 4 4 4 3 2 1
1 1 1 0 0 0 0 0 0 0 0 0 1 1 0 0 0 1 2 5 9 11 11 15 21 22 17 13 11 8 5 6 5 4 3 2 1 1 1 3 3 3 4 4 4 3 2 1 0
0 0 0 0 0 0 0 0 0 0 0 0 0 0 0 0 1 1 3 5 7 9 10 16 22 22 18 14 10 7 4 3 4 4 3 2 1 0 2 3 3 3 4 4 4 3 1 0 0
0 0 0 0 0 0 0 0 0 0 0 0 0 0 0 0 1 2 3 6 8 10 13 16 20 21 19 15 12 9 4 2 1 2 3 2 1 0 1 3 3 4 4 4 4 2 1 1 0
0 0 0 0 0 0 0 0 0 0 0 0 0 0 0 0 1 1 3 7 9 11 13 14 15 18 18 15 12 9 4 1 0 1 2 3 2 0 1 2 3 3 4 4 4 2 2 1 1
0 0 0 0 0 0 0 0 0 0 0 0 0 0 0 0 0 1 3 6 9 11 11 10 9 11 13 11 9 7 4 1 0 0 1 3 2 1 0 1 2 3 3 4 3 2 1 1 0
0 0 0 0 0 0 0 0 0 0 0 0 0 0 0 0 0 1 2 5 8 9 8 6 6 6 7 7 5 4 4 2 1 0 1 2 1 0 0 0 1 3 3 3 2 1 1 0 0
0 0 0 0 0 0 0 0 0 0 0 0 0 0 0 0 0 0 1 3 6 6 5 4 4 5 5 4 3 2 2 2 1 0 0 0 0 0 0 0 1 2 3 2 1 0 0 0 0
0 0 0 0 0 0 0 0 0 0 0 0 0 0 0 0 0 0 0 1 3 4 3 3 3 4 4 3 2 2 1 0 0 0 0 0 0 0 0 0 0 1 2 2 1 0 0 0 0
0 0 0 0 0 0 0 0 0 0 0 0 0 0 0 0 0 0 0 0 1 2 2 2 3 3 3 3 3 2 1 0 0 0 0 0 0 0 0 0 0 0 1 1 0 0 0 0 0
0 0 0 0 0 0 0 0 0 0 0 0 0 0 0 0 0 0 0 0 0 0 1 1 2 3 3 3 3 1 0 0 0 0 0 0 0 0 0 0 0 0 0 0 0 0 0 0 0
0 0 0 0 0 0 0 0 0 0 0 0 0 0 0 0 0 0 0 0 0 0 0 0 1 2 3 3 2 1 0 0 0 0 0 0 0 0 0 0 0 0 0 0 0 0 0 0 0
0 0 0 0 0 0 0 0 0 0 0 0 0 0 0 0 0 0 0 0 0 0 0 0 0 1 3 3 2 1 0 0 0 0 0 0 0 0 0 0 0 0 0 0 0 0 0 0 0
0 0 0 0 0 0 0 0 0 0 0 0 0 0 0 0 0 0 0 0 0 0 0 0 0 1 2 3 2 1 0 0 0 0 0 0 0 0 0 0 0 0 0 0 0 0 0 0 0
0 0 0 0 0 0 0 0 0 0 0 0 0 0 0 0 0 0 0 0 0 0 0 0 0 0 1 2 2 1 0 0 0 0 0 0 0 0 0 0 0 0 0 0 0 0 0 0 0
0 0 0 0 0 0 0 0 0 0 0 0 0 1 0 0 0 0 0 0 0 0 0 0 0 0 0 1 2 2 1 0 0 0 0 0 0 0 0 0 0 0 0 0 0 0 0 0 0
0 0 0 0 0 0 0 0 0 0 0 0 0 0 0 0 0 0 0 0 0 0 0 0 0 0 0 1 2 2 1 0 0 0 0 0 0 0 0 0 0 0 0 0 0 0 0 0 0
0 0 0 0 0 0 0 0 0 0 0 0 0 0 0 1 1 0 0 0 0 0 0 0 0 0 0 1 2 2 1 0 0 0 0 0 0 0 0 0 0 0 0 0 0 0 0 0 0
0 0 0 0 0 0 0 0 0 0 0 0 0 0 0 1 1 0 0 0 0 0 0 0 0 0 0 0 1 1 0 0 0 0 0 0 0 0 0 0 0 0 0 0 0 0 0 0 0
0 0 0 0 0 0 0 0 0 0 0 0 0 0 0 0 0 0 0 0 0 0 0 0 0 0 0 0 0 0 0 0 0 0 0 0 0 0 0 0 0 0 0 0 0 0 0 0 0
0 0 0 0 0 0 0 0 0 0 0 0 0 0 0 0 0 0 0 0 0 0 0 0 0 0 0 0 0 0 0 0 0 0 0 0 0 0 0 0 0 0 0 0 0 0 0 0 0
0 0 0 0 0 0 0 0 0 0 0 0 0 0 0 0 0 0 0 0 0 0 0 0 0 0 0 0 0 0 0 0 0 0 0 0 0 0 0 0 0 0 0 0 0 0 0 0 0
0 0 0 0 0 0 0 0 0 0 0 0 0 0 0 0 0 0 0 0 0 0 0 0 0 0 0 0 0 0 0 0 0 0 0 0 0 0 0 0 0 0 0 0 0 0 0 0 0
0 0 0 0 0 0 0 0 0 0 0 0 0 0 0 0 0 0 0 0 0 0 0 0 0 0 0 0 0 0 0 0 0 0 0 0 0 0 0 0 0 0 0 0 0 0 0 0 0
0 0 0 0 0 0 0 0 0 0 0 0 0 0 0 0 0 0 0 0 0 0 1 1 1 0 0 0 0 0 0 0 0 0 0 0 0 0 0 0 0 0 0 0 0 0 0 0 0
0 0 0 0 0 0 0 0 0 0 0 0 0 0 0 0 0 0 0 0 0 0 1 2 1 0 0 0 0 0 0 0 0 0 0 0 0 0 0 0 0 0 0 0 0 0 0 0 0
0 0 0 0 0 0 0 0 0 0 0 0 0 0 0 0 0 0 0 0 0 0 1 1 1 0 0 0 0 0 0 0 0 0 0 0 0 0 0 0 0 0 0 0 0 0 0 0 0
0 0 0 0 0 0 0 0 0 0 0 0 0 0 0 0 0 0 0 0 0 0 0 0 0 0 0 0 0 0 0 0 0 0 0 0 0 0 0 0 0 0 0 0 0 0 0 0 0
0 0 0 0 0 0 0 0 0 0 0 0 0 0 0 0 0 0 0 0 0 0 0 0 0 0 0 0 0 0 0 0 0 0 0 0 0 0 0 0 0 0 0 0 0 0 0 0 0
Wind_Speed
12 11 6 2 3 5 8 7 4 2 2 3 5 5 5 5 4 5 3 3 6 7 8 7 8 9 9 8 8 8 9 8 8 8 8 8 9 9 9 9 9 10 10 10 10 10 10 10 11
10 8 4 3 4 6 7 6 3 1 2 2 3 4 3 4 5 6 3 3 5 6 7 6 7 8 9 8 8 8 8 8 8 8 8 8 9 8 9 9 9 9 9 10 10 10 10 10 10
10 7 4 3 5 6 4 1 4 5 3 1 1 2 2 3 4 4 3 2 4 5 6 7 8 8 8 8 8 7 7 8 7 7 8 8 8 8 8 8 8 9 9 9 9 9 10 9 9
4 3 4 5 10 6 4 2 4 3 2 2 2 1 3 5 4 3 3 2 3 5 6 7 8 7 8 8 7 7 7 7 7 7 7 8 8 8 8 8 8 8 8 8 8 9 9 9 8
3 3 5 7 9 6 3 3 2 1 1 1 1 1 2 3 5 4 3 3 4 4 5 6 7 7 7 8 7 7 6 6 7 6 7 8 8 8 8 8 8 8 8 8 8 8 8 8 8
3 3 5 7 7 4 2 1 1 1 2 2 1 1 2 3 5 4 3 3 4 4 4 5 5 6 6 7 7 6 6 6 6 6 6 7 8 8 8 8 7 7 7 8 8 8 8 8 7
3 3 6 7 5 4 2 3 2 2 2 2 2 1 3 4 4 4 4 3 4 4 4 3 3 4 5 5 6 6 6 6 5 5 6 6 7 7 8 7 7 7 7 7 8 7 7 7 7
3 4 6 6 5 3 2 3 3 3 3 3 3 1 1 2 3 3 3 3 2 4 4 3 2 2 3 4 5 6 6 6 5 5 5 5 5 6 6 6 6 7 7 7 7 7 7 6 5
3 3 4 3 3 1 3 3 2 3 2 2 2 3 2 3 2 2 2 2 2 3 3 2 1 2 2 3 5 5 5 5 5 4 5 4 3 3 3 5 6 6 6 7 6 6 6 5 4
3 3 4 3 4 2 2 3 2 1 1 1 1 3 3 3 2 1 1 1 2 3 2 2 1 2 2 3 3 3 3 3 3 3 3 2 2 2 3 5 5 5 5 6 6 5 4 3 2
3 4 3 4 4 3 2 3 4 3 3 2 0 2 2 1 1 1 2 2 2 2 3 2 1 1 2 2 2 1 2 2 2 3 2 2 2 2 3 2 3 3 4 3 3 3 1 1 1
4 4 4 3 4 3 4 3 4 5 3 2 1 2 2 1 0 1 1 2 2 2 2 2 1 1 1 2 2 2 1 2 2 2 2 2 2 2 2 2 2 2 2 2 2 1 1 1 1
5 4 3 3 3 3 4 5 5 6 3 1 1 1 1 0 1 1 2 2 2 2 2 2 2 1 1 1 1 2 1 1 2 2 2 2 2 2 2 2 2 2 2 2 1 1 1 1 1
2 3 4 3 3 3 4 5 5 5 2 1 1 1 1 1 0 1 2 2 2 2 3 1 1 1 1 1 1 2 2 1 2 2 2 2 2 2 2 2 2 2 2 2 1 1 1 1 1
2 3 5 5 5 3 2 5 5 4 2 2 2 2 1 1 0 0 1 1 1 2 2 1 1 1 0 0 1 1 1 2 2 2 3 3 2 2 2 2 2 2 1 2 1 1 0 0 0
4 4 4 3 3 3 3 5 2 3 2 2 2 2 1 1 1 0 0 1 1 2 2 1 1 0 0 0 0 1 1 1 1 2 3 3 3 3 2 2 2 2 2 1 1 1 1 0 0
4 4 5 2 3 2 4 5 2 3 3 2 2 1 1 1 0 1 1 1 1 1 2 2 1 0 0 0 1 1 1 1 1 1 2 3 3 3 2 2 2 2 2 2 1 1 1 1 0
4 5 5 4 2 3 5 5 3 3 4 3 2 1 1 1 2 1 1 1 1 1 1 2 1 0 0 0 1 1 1 0 1 1 1 2 3 3 3 2 3 3 2 2 2 1 1 1 0
5 6 7 4 2 3 6 6 5 3 2 2 1 0 0 1 1 2 2 2 2 1 1 2 1 0 0 0 0 1 0 0 0 1 2 2 2 3 3 2 3 3 3 3 2 2 1 1 1
6 6 5 3 2 3 6 7 6 4 4 2 1 0 1 1 2 2 3 2 1 1 2 1 1 0 1 0 0 1 1 1 1 0 1 2 2 2 2 3 3 3 3 3 3 3 2 1 1
5 4 3 4 5 5 4 5 4 4 3 2 1 1 1 1 2 2 2 2 2 2 2 2 2 1 0 1 0 0 1 0 0 1 1 1 2 3 3 2 2 3 3 3 3 3 3 2 1
4 2 3 3 3 3 3 4 3 4 4 3 2 2 1 2 3 3 3 3 3 3 3 3 2 2 1 1 1 1 1 2 2 1 1 1 2 2 3 3 2 3 3 3 3 3 2 2 2
2 4 4 5 4 4 4 4 3 4 3 2 2 2 3 4 4 4 4 4 4 4 4 3 3 3 1 0 0 1 1 2 1 1 1 1 1 2 3 3 3 3 3 3 3 2 2 2 2
3 3 3 3 2 4 4 4 3 1 2 2 2 2 3 3 4 4 4 4 4 4 4 3 3 3 2 1 1 0 1 1 1 1 1 1 1 1 2 3 3 3 3 4 3 3 3 3 2
2 1 1 1 2 4 2 3 2 2 3 3 4 2 2 3 4 4 4 4 4 4 5 4 4 3 2 1 1 0 1 1 2 2 2 2 1 1 1 2 2 3 3 4 3 3 3 3 3
2 1 1 2 3 2 1 3 1 3 4 5 5 4 3 4 4 4 4 4 4 4 4 5 4 4 3 2 1 1 0 1 1 1 1 2 2 2 2 2 2 3 3 3 3 3 3 3 3
1 2 1 1 2 2 3 2 2 3 3 4 4 4 4 4 4 4 4 4 4 4 4 4 5 4 4 3 2 2 1 1 1 2 1 1 1 1 2 2 3 3 3 3 3 3 3 3 3
2 1 0 1 2 3 3 2 1 1 1 2 3 3 3 4 4 4 4 5 5 4 5 5 5 4 4 4 3 3 2 2 1 1 1 2 2 2 2 2 3 3 3 4 3 3 3 3 3
2 1 2 2 2 2 3 2 3 2 2 2 2 2 3 3 4 4 4 4 4 4 4 4 4 4 4 4 3 3 2 2 1 1 2 2 2 2 2 2 2 3 3 3 3 3 3 3 3
1 1 1 2 3 2 2 3 3 4 3 3 3 3 3 3 3 4 4 4 4 4 4 4 4 4 4 3 3 3 3 2 1 1 2 2 2 2 2 1 2 2 3 3 3 4 4 4 4
Wind_Direction
303 283 263 254 238 231 240 240 246 269 332 21 20 15 20 11 24 94 133 70 85 108 115 116 110 114 112 108 107 108 106 109 111 112 110 109 107 106 104 101 99 97 102 101 100 97 97 97 97
294 286 266 239 237 237 239 230 228 356 50 31 23 22 18 52 64 90 86 63 88 108 118 117 106 115 113 109 107 110 111 107 112 112 114 113 110 107 104 101 101 98 100 101 101 98 98 97 99
278 270 254 233 232 241 266 0 64 62 57 53 28 24 29 43 54 70 62 64 90 106 113 117 111 118 118 114 112 111 117 114 111 115 115 114 112 108 105 102 102 100 103 101 100 101 102 100 100
271 241 244 247 248 253 282 4 58 30 17 48 62 36 78 47 41 59 50 73 95 102 108 120 118 121 124 121 119 116 121 121 116 117 117 118 117 113 106 102 102 101 105 104 102 103 105 103 102
246 242 234 240 247 267 298 356 38 338 305 43 97 74 75 52 58 62 61 69 85 100 108 127 127 125 125 122 124 123 123 125 124 117 124 123 121 115 109 104 101 99 105 107 105 103 105 105 103
254 241 239 240 243 252 275 331 305 291 313 326 32 38 85 67 56 39 46 54 75 83 102 130 135 130 134 130 125 123 124 122 125 121 119 125 122 119 114 107 104 100 105 107 106 104 102 104 102
266 258 254 261 266 270 312 3 351 346 313 326 355 26 107 78 58 39 38 33 55 76 88 115 139 141 141 134 126 123 117 112 117 120 111 118 120 123 122 113 109 104 105 109 105 104 103 102 102
294 279 258 257 259 272 0 3 16 0 330 5 5 53 111 81 44 39 39 22 49 72 80 91 121 129 144 142 129 126 120 118 118 120 112 110 121 125 124 118 112 107 109 109 110 110 106 104 105
281 256 256 277 284 322 31 356 12 7 6 9 16 13 74 94 76 58 54 28 42 65 72 87 100 118 137 149 141 133 132 130 128 128 126 119 131 129 129 120 113 111 116 114 115 116 115 110 115
231 246 262 327 345 354 359 336 330 288 271 294 27 56 77 83 81 56 52 44 39 40 45 65 100 135 137 139 135 144 145 144 145 143 150 148 144 138 130 128 121 116 119 120 119 121 120 109 122
231 250 291 324 349 347 317 303 300 277 269 274 273 83 82 53 47 25 35 46 37 44 21 37 57 146 141 129 133 138 144 150 156 149 149 149 136 127 122 127 127 125 121 120 118 118 126 120 119
246 267 289 317 335 316 295 289 294 288 293 346 64 95 93 96 11 12 29 44 21 13 8 34 55 83 124 126 136 134 141 151 149 149 152 134 124 118 124 133 136 135 127 116 120 139 129 118 132
244 267 292 299 300 290 284 262 264 266 275 357 78 84 108 38 25 33 41 39 29 4 350 20 65 63 91 126 147 141 134 149 144 138 141 113 116 132 134 143 141 137 129 128 137 145 139 144 153
270 288 280 278 270 263 262 262 247 246 186 156 186 204 166 145 339 24 36 16 13 0 348 350 68 47 55 117 145 149 150 152 152 144 143 127 119 137 143 134 142 139 139 143 155 157 149 161 140
268 261 257 231 231 222 258 269 231 203 174 186 211 210 176 188 188 55 37 22 25 355 348 345 126 94 52 99 161 148 150 155 157 152 149 146 139 139 152 138 137 139 136 140 146 119 94 112 92
226 233 244 217 204 175 198 255 189 143 153 189 209 207 192 237 222 103 52 56 32 1 352 347 355 104 110 107 155 157 152 155 156 154 148 150 150 140 147 153 147 146 133 128 132 121 125 138 44
217 241 249 239 206 198 223 252 216 183 206 221 219 215 213 240 262 52 56 58 45 12 359 358 342 332 136 147 143 145 126 126 135 142 142 152 157 150 141 155 150 146 139 136 134 114 141 135 19
268 271 265 248 227 259 255 255 244 210 216 230 231 240 280 331 1 33 67 62 51 29 1 345 342 266 213 164 112 97 83 104 136 140 144 160 162 159 147 157 156 153 145 149 149 151 120 135 158
293 286 284 286 271 271 255 258 248 233 224 247 264 271 326 341 7 30 59 83 55 25 5 342 3 274 150 113 137 132 160 199 160 162 163 169 167 165 155 163 166 161 161 164 156 147 144 158 144
278 282 292 318 341 278 267 264 246 206 198 199 204 337 350 348 13 52 48 64 56 18 347 343 335 270 192 210 184 174 164 227 194 146 165 163 151 157 163 168 178 172 164 164 162 154 164 189 174
274 268 297 313 317 261 258 268 204 171 157 147 135 71 16 27 39 44 37 45 38 18 346 346 329 302 232 219 162 147 124 33 300 191 176 173 180 173 167 171 184 177 172 178 179 174 177 186 222
278 312 320 308 305 276 235 274 212 168 169 153 116 72 50 47 55 50 34 27 26 15 6 1 341 334 277 210 183 193 210 206 212 193 190 202 195 174 176 175 187 188 180 183 191 185 195 179 201
301 315 289 269 268 285 244 244 262 158 170 157 119 79 57 58 55 53 45 34 29 21 17 5 356 359 26 50 204 197 252 248 210 165 177 199 201 180 171 178 179 192 190 193 196 196 203 202 205
306 298 271 241 252 265 228 202 269 184 174 145 121 83 66 57 54 50 43 36 30 22 17 4 357 7 37 47 33 230 229 262 243 184 191 196 202 198 189 183 187 197 195 199 202 198 207 212 218
328 29 6 306 225 247 184 188 243 47 52 107 120 92 61 60 53 41 33 28 27 17 7 6 8 12 35 53 35 290 255 259 253 214 199 204 206 215 215 199 204 209 209 205 198 195 204 203 210
250 232 174 241 264 299 289 221 171 92 59 70 83 83 60 45 40 30 24 21 20 18 7 8 11 9 9 22 15 334 300 273 284 273 223 224 210 216 214 226 230 229 215 213 203 204 210 205 209
228 231 291 281 277 264 241 199 105 87 61 70 73 66 50 34 27 20 17 18 18 21 16 14 15 13 4 5 6 0 346 340 323 311 285 258 237 224 211 230 237 236 224 215 208 211 215 214 213
285 309 115 207 259 268 256 222 211 146 52 58 59 52 42 33 23 18 15 14 15 21 21 24 25 19 8 8 2 353 353 350 332 313 308 275 254 243 231 233 236 235 233 219 210 214 215 220 227
187 200 225 241 252 250 275 284 28 77 84 79 55 50 49 39 23 15 10 14 14 21 23 22 22 22 13 6 1 353 342 329 321 299 291 285 276 256 241 236 249 245 240 219 209 213 211 219 230
297 238 184 198 259 244 257 270 43 59 61 57 43 37 40 44 32 22 13 12 13 16 13 11 14 18 9 1 357 351 339 336 329 311 302 290 276 264 253 236 255 249 248 228 212 218 219 219 225